GW3513 Weather Reports


Display with metric or nautical units.
time (UTC)temp
F
wind
direction
speed
MPH
gust
MPH
rain 1hr
in
rain 24hr
in
rain mn
in
humidity
%
barometer
mb
20260510051754 62 162 0.0 0.0 0.00 0.00 0.00 72 1016.3
20260510051251 63 162 0.0 0.0 0.00 0.00 0.00 72 1016.0
20260510050748 62 162 0.0 0.0 0.00 0.00 0.00 73 1016.2
20260510050245 62 162 0.0 0.0 0.00 0.00 0.00 77 1016.0
20260510045742 63 162 0.0 0.0 0.00 0.00 0.00 73 1015.8
20260510045238 61 162 0.0 0.0 0.00 0.00 0.00 74 1015.9
20260510044735 61 162 0.0 0.0 0.00 0.00 0.00 74 1015.9
20260510044233 61 162 0.0 0.0 0.00 0.00 0.00 75 1015.7
20260510043728 60 162 0.0 0.0 0.00 0.00 0.00 75 1015.7
20260510043225 60 162 0.0 0.0 0.00 0.00 0.00 78 1015.9
20260510042722 60 162 0.0 0.0 0.00 0.00 0.00 77 1015.9
20260510042218 61 162 0.0 0.0 0.00 0.00 0.00 77 1016.0
20260510041715 61 162 0.0 0.0 0.00 0.00 0.00 77 1016.2
20260510041213 61 162 0.0 0.0 0.00 0.00 0.00 73 1015.9
20260510040709 62 162 0.0 0.0 0.00 0.00 0.00 72 1015.8
20260510040206 61 162 0.0 0.0 0.00 0.00 0.00 71 1015.7
20260510035701 60 162 0.0 0.0 0.00 0.00 0.00 73 1015.7
20260510035157 59 162 0.0 0.0 0.00 0.00 0.00 75 1015.6
20260510034653 59 162 0.0 0.0 0.00 0.00 0.00 79 1015.3
20260510034151 59 162 0.0 0.0 0.00 0.00 0.00 79 1015.4
20260510033647 59 162 0.0 0.0 0.00 0.00 0.00 76 1015.7
20260510033145 59 162 0.0 0.0 0.00 0.00 0.00 76 1015.7
20260510032641 59 162 0.0 0.0 0.00 0.00 0.00 79 1015.5
20260510032136 59 162 0.0 0.0 0.00 0.00 0.00 79 1015.5
20260510031631 59 162 0.0 0.0 0.00 0.00 0.00 79 1015.5
20260510031129 60 162 0.0 0.0 0.00 0.00 0.00 78 1015.4
20260510030623 60 162 0.0 0.0 0.00 0.00 0.00 77 1015.4
20260510030121 60 162 0.0 0.0 0.00 0.00 0.00 77 1015.4
20260510025618 60 162 0.0 0.0 0.00 0.00 0.00 76 1015.2
20260510025115 61 162 0.0 0.0 0.00 0.00 0.00 75 1015.3
20260510024612 62 162 0.0 0.0 0.00 0.00 0.00 76 1015.3
20260510024108 62 162 0.0 0.0 0.00 0.00 0.00 72 1015.3
20260510023604 63 162 0.0 0.0 0.00 0.00 0.00 68 1014.9
20260510023102 62 161 0.0 0.0 0.00 0.00 0.00 70 1014.8
20260510022601 62 162 0.0 0.0 0.00 0.00 0.00 72 1014.6
20260510022056 62 162 0.0 0.0 0.00 0.00 0.00 76 1014.4
20260510021552 63 162 0.0 0.0 0.00 0.00 0.00 73 1014.4
20260510021050 63 162 0.0 0.0 0.00 0.00 0.00 71 1014.6
20260510020544 63 162 0.0 0.0 0.00 0.00 0.00 72 1014.5
20260510020040 64 161 0.0 0.0 0.00 0.00 0.00 72 1014.0
20260510015536 65 162 0.0 0.0 0.00 0.00 0.00 68 1014.1
20260510015032 65 162 0.0 0.0 0.00 0.00 0.00 66 1014.1
20260510014529 65 162 0.0 0.0 0.00 0.00 0.00 66 1013.8
20260510014026 66 162 0.0 0.0 0.00 0.00 0.00 67 1013.7
20260510013520 67 162 0.0 0.0 0.00 0.00 0.00 65 1013.6
20260510013016 67 161 0.0 0.0 0.00 0.00 0.00 64 1013.7
20260510012510 68 161 0.0 0.0 0.00 0.00 0.00 61 1013.5
20260510012007 68 161 0.0 0.0 0.00 0.00 0.00 60 1013.3
20260510011501 69 161 0.0 0.0 0.00 0.00 0.00 60 1013.5
20260510010957 71 162 0.0 0.0 0.00 0.00 0.00 58 1013.3
20260510010454 71 162 0.0 0.0 0.00 0.00 0.00 54 1013.6
20260510005951 73 162 0.0 0.0 0.00 0.00 0.00 54 1013.6
20260510005447 73 162 0.0 0.0 0.00 0.00 0.00 53 1013.1
20260510004945 75 162 0.0 0.0 0.00 0.00 0.00 52 1013.2
20260510004442 78 162 0.0 0.0 0.00 0.00 0.00 48 1013.1
20260510003940 79 162 0.0 0.0 0.00 0.00 0.00 43 1013.0
20260510003437 80 162 0.0 0.0 0.00 0.00 0.00 39 1013.1
20260510002937 82 162 0.0 0.0 0.00 0.00 0.00 38 1012.9
20260510002433 82 162 0.0 0.0 0.00 0.00 0.00 38 1012.8
20260510001929 82 162 0.0 0.0 0.00 0.00 0.00 36 1012.9
20260510001427 83 162 0.0 0.0 0.00 0.00 0.00 36 1012.9
20260510000925 84 162 0.0 0.0 0.00 0.00 0.00 37 1013.1
20260510000421 84 162 0.0 0.0 0.00 0.00 0.00 38 1013.2
20260509235917 85 162 0.0 0.0 0.00 0.00 0.00 35 1013.0
20260509235409 86 161 0.0 0.0 0.00 0.00 0.00 37 1013.2
20260509234904 86 162 0.0 0.0 0.00 0.00 0.00 37 1012.9
20260509234402 88 162 0.0 0.0 0.00 0.00 0.00 36 1013.0
20260509233900 89 161 0.0 0.0 0.00 0.00 0.00 33 1013.1
20260509233357 91 161 0.0 0.0 0.00 0.00 0.00 29 1013.3
20260509232852 93 161 0.0 0.0 0.00 0.00 0.00 30 1013.1
20260509232351 94 161 0.0 0.0 0.00 0.00 0.00 30 1013.2
20260509231846 94 161 0.0 0.0 0.00 0.00 0.00 28 1013.0
20260509231344 94 161 0.0 0.0 0.00 0.00 0.00 28 1013.2
20260509230842 95 161 0.0 0.0 0.00 0.00 0.00 26 1013.0
20260509230338 96 161 0.0 0.0 0.00 0.00 0.00 24 1013.1
20260509225833 94 161 0.0 0.0 0.00 0.00 0.00 25 1013.2
20260509225331 94 161 0.0 0.0 0.00 0.00 0.00 32 1013.1
20260509224826 97 161 0.0 0.0 0.00 0.00 0.00 26 1013.1
20260509224322 97 161 0.0 0.0 0.00 0.00 0.00 26 1013.0
20260509223820 97 161 0.0 0.0 0.00 0.00 0.00 25 1013.0
20260509223316 99 161 0.0 0.0 0.00 0.00 0.00 24 1013.1
20260509222813 99 161 0.0 0.0 0.00 0.00 0.00 25 1013.1
20260509222309 99 161 0.0 0.0 0.00 0.00 0.00 25 1013.0
20260509221804 102 161 0.0 0.0 0.00 0.00 0.00 22 1013.0
20260509221302 101 161 0.0 0.0 0.00 0.00 0.00 21 1013.0
20260509220756 102 161 0.0 0.0 0.00 0.00 0.00 26 1013.2
20260509220248 101 161 0.0 0.0 0.00 0.00 0.00 22 1013.2
20260509215743 102 161 0.0 0.0 0.00 0.00 0.00 22 1013.3
20260509215240 101 161 0.0 0.0 0.00 0.00 0.00 23 1013.2
20260509214737 101 161 0.0 0.0 0.00 0.00 0.00 24 1013.2
20260509214234 102 161 0.0 0.0 0.00 0.00 0.00 21 1013.3
20260509213731 107 161 0.0 0.0 0.00 0.00 0.00 22 1013.2
20260509213226 109 161 0.0 0.0 0.00 0.00 0.00 19 1013.1
20260509212725 108 161 0.0 0.0 0.00 0.00 0.00 19 1013.3
20260509212221 105 161 0.0 0.0 0.00 0.00 0.00 21 1013.2
20260509211717 107 161 0.0 0.0 0.00 0.00 0.00 20 1013.2
20260509211214 107 161 0.0 0.0 0.00 0.00 0.00 21 1013.1
20260509210710 107 161 0.0 0.0 0.00 0.00 0.00 21 1013.2
20260509210208 109 161 0.0 0.0 0.00 0.00 0.00 21 1013.1
20260509205707 107 161 0.0 0.0 0.00 0.00 0.00 22 1013.1
20260509205206 105 161 0.0 0.0 0.00 0.00 0.00 22 1013.1
20260509204703 105 161 0.0 0.0 0.00 0.00 0.00 20 1013.5
20260509204159 104 161 0.0 0.0 0.00 0.00 0.00 21 1013.2
20260509203655 106 161 0.0 0.0 0.00 0.00 0.00 26 1013.5
20260509203154 106 161 0.0 0.0 0.00 0.00 0.00 22 1013.6
20260509202649 109 161 0.0 0.0 0.00 0.00 0.00 20 1013.1
20260509202144 110 161 0.0 0.0 0.00 0.00 0.00 21 1013.3
20260509201639 111 161 0.0 0.0 0.00 0.00 0.00 18 1013.2
20260509201137 106 161 0.0 0.0 0.00 0.00 0.00 23 1013.7
20260509200632 102 161 0.0 0.0 0.00 0.00 0.00 23 1013.8
20260509200123 104 161 0.0 0.0 0.00 0.00 0.00 25 1013.8
20260509195619 105 161 0.0 0.0 0.00 0.00 0.00 21 1013.7
20260509195114 99 161 0.0 0.0 0.00 0.00 0.00 22 1013.8
20260509194613 102 160 0.0 0.0 0.00 0.00 0.00 25 1013.8
20260509194111 102 160 0.0 0.0 0.00 0.00 0.00 21 1013.9
20260509193607 103 160 0.0 0.0 0.00 0.00 0.00 21 1013.9
20260509193103 100 160 0.0 0.0 0.00 0.00 0.00 20 1013.9
20260509192559 96 160 0.0 0.0 0.00 0.00 0.00 24 1014.0
20260509192049 95 160 0.0 0.0 0.00 0.00 0.00 25 1014.0
20260509191548 97 160 0.0 0.0 0.00 0.00 0.00 30 1014.0
20260509191045 97 160 0.0 0.0 0.00 0.00 0.00 30 1013.9
20260509190541 100 160 0.0 0.0 0.00 0.00 0.00 26 1014.0
20260509190039 102 160 0.0 0.0 0.00 0.00 0.00 24 1013.9
20260509185537 98 160 0.0 0.0 0.00 0.00 0.00 26 1014.1
20260509185033 96 160 0.0 0.0 0.00 0.00 0.00 27 1014.1
20260509184532 96 160 0.0 0.0 0.00 0.00 0.00 30 1014.1
20260509184027 96 160 0.0 0.0 0.00 0.00 0.00 24 1014.1
20260509183522 96 160 0.0 0.0 0.00 0.00 0.00 26 1014.1
20260509183019 98 160 0.0 0.0 0.00 0.00 0.00 26 1014.1
20260509182515 98 160 0.0 0.0 0.00 0.00 0.00 24 1014.1
20260509182012 96 160 0.0 0.0 0.00 0.00 0.00 24 1014.0
20260509181510 98 160 0.0 0.0 0.00 0.00 0.00 26 1014.1
20260509181008 96 160 0.0 0.0 0.00 0.00 0.00 27 1014.1
20260509180502 96 160 0.0 0.0 0.00 0.00 0.00 25 1014.0
20260509180000 99 160 0.0 0.0 0.00 0.00 0.00 28 1014.0
20260509175456 97 160 0.0 0.0 0.00 0.00 0.00 26 1014.1
20260509174953 97 160 0.0 0.0 0.00 0.00 0.00 28 1014.3
20260509174449 96 160 0.0 0.0 0.00 0.00 0.00 28 1014.1
20260509173944 94 160 0.0 0.0 0.00 0.00 0.00 26 1014.3
20260509173439 92 160 0.0 0.0 0.00 0.00 0.00 34 1014.3
20260509172936 90 160 0.0 0.0 0.00 0.00 0.00 33 1014.2
20260509172433 95 160 0.0 0.0 0.00 0.00 0.00 33 1014.2
20260509171929 95 160 0.0 0.0 0.00 0.00 0.00 31 1014.3
20260509171425 90 160 0.0 0.0 0.00 0.00 0.00 34 1014.4
20260509170921 88 160 0.0 0.0 0.00 0.00 0.00 33 1014.4
20260509170417 88 160 0.0 0.0 0.00 0.00 0.00 33 1014.4
20260509165913 88 160 0.0 0.0 0.00 0.00 0.00 38 1014.6
20260509165407 90 160 0.0 0.0 0.00 0.00 0.00 34 1014.5
20260509164903 91 160 0.0 0.0 0.00 0.00 0.00 32 1014.3
20260509164359 91 160 0.0 0.0 0.00 0.00 0.00 36 1014.2
20260509163855 91 160 0.0 0.0 0.00 0.00 0.00 35 1014.3
20260509163352 89 160 0.0 0.0 0.00 0.00 0.00 36 1014.3
20260509162851 91 160 0.0 0.0 0.00 0.00 0.00 35 1014.3
20260509162344 89 160 0.0 0.0 0.00 0.00 0.00 35 1014.3
20260509161841 89 160 0.0 0.0 0.00 0.00 0.00 34 1014.2
20260509161337 86 160 0.0 0.0 0.00 0.00 0.00 40 1014.3
20260509160833 86 160 0.0 0.0 0.00 0.00 0.00 39 1014.3
20260509160329 85 160 0.0 0.0 0.00 0.00 0.00 41 1014.4
20260509155824 85 160 0.0 0.0 0.00 0.00 0.00 39 1014.3
20260509155321 85 160 0.0 0.0 0.00 0.00 0.00 40 1014.2
20260509154817 84 160 0.0 0.0 0.00 0.00 0.00 45 1014.1
20260509154313 83 160 0.0 0.0 0.00 0.00 0.00 45 1014.3
20260509153811 86 160 0.0 0.0 0.00 0.00 0.00 42 1014.1
20260509153307 84 160 0.0 0.0 0.00 0.00 0.00 45 1014.0
20260509152804 81 160 0.0 0.0 0.00 0.00 0.00 53 1014.1
20260509152300 82 160 0.0 0.0 0.00 0.00 0.00 48 1014.0
20260509151757 82 160 0.0 0.0 0.00 0.00 0.00 49 1014.2
20260509151253 79 160 0.0 0.0 0.00 0.00 0.00 53 1014.2
20260509150752 79 161 0.0 0.0 0.00 0.00 0.00 57 1014.2
20260509150250 80 160 0.0 0.0 0.00 0.00 0.00 52 1014.1
20260509145746 79 161 0.0 0.0 0.00 0.00 0.00 52 1014.2
20260509145246 78 160 0.0 0.0 0.00 0.00 0.00 57 1014.0
20260509144743 78 160 0.0 0.0 0.00 0.00 0.00 57 1014.1
20260509144239 76 161 0.0 0.0 0.00 0.00 0.00 61 1014.0
20260509143737 77 161 0.0 0.0 0.00 0.00 0.00 58 1014.0
20260509143234 76 161 0.0 0.0 0.00 0.00 0.00 60 1014.1
20260509142730 75 160 0.0 0.0 0.00 0.00 0.00 63 1014.1
20260509142226 74 160 0.0 0.0 0.00 0.00 0.00 64 1014.1
20260509141722 73 161 0.0 0.0 0.00 0.00 0.00 68 1013.9
20260509141220 71 161 0.0 0.0 0.00 0.00 0.00 76 1014.0
20260509140716 70 161 0.0 0.0 0.00 0.00 0.00 75 1013.8
20260509140214 69 161 0.0 0.0 0.00 0.00 0.00 76 1014.0
20260509135711 69 161 0.0 0.0 0.00 0.00 0.00 81 1013.7
20260509135209 67 161 0.0 0.0 0.00 0.00 0.00 85 1013.7
20260509134705 66 161 0.0 0.0 0.00 0.00 0.00 83 1013.7
20260509134203 65 161 0.0 0.0 0.00 0.00 0.00 89 1013.8
20260509133700 64 161 0.0 0.0 0.00 0.00 0.00 93 1013.8
20260509133157 63 161 0.0 0.0 0.00 0.00 0.00 96 1013.6
20260509132655 62 161 0.0 0.0 0.00 0.00 0.00 96 1013.7
20260509132153 61 161 0.0 0.0 0.00 0.00 0.00 99 1013.6
20260509131649 60 161 0.0 0.0 0.00 0.00 0.00 99 1013.8
20260509131146 60 161 0.0 0.0 0.00 0.00 0.00 99 1013.7
20260509130642 59 161 0.0 0.0 0.00 0.00 0.00 99 1013.8
20260509130138 59 161 0.0 0.0 0.00 0.00 0.00 99 1013.5
20260509125635 59 161 0.0 0.0 0.00 0.00 0.00 99 1013.5
20260509125132 58 161 0.0 0.0 0.00 0.00 0.00 99 1013.5
20260509124628 58 161 0.0 0.0 0.00 0.00 0.00 99 1013.7
20260509124125 58 161 0.0 0.0 0.00 0.00 0.00 99 1013.5
20260509123623 57 161 0.0 0.0 0.00 0.00 0.00 99 1013.7
20260509123120 57 161 0.0 0.0 0.00 0.00 0.00 99 1013.5
20260509122615 56 161 0.0 0.0 0.00 0.00 0.00 99 1013.7
20260509122113 55 161 0.0 0.0 0.00 0.00 0.00 99 1013.7
20260509121609 55 161 0.0 0.0 0.00 0.00 0.00 99 1013.5
20260509121107 53 161 0.0 0.0 0.00 0.00 0.00 99 1013.5
20260509120605 53 161 0.0 0.0 0.00 0.00 0.00 99 1013.5
20260509115600 51 161 0.0 0.0 0.00 0.00 0.00 99 1013.2
20260509115058 51 161 0.0 0.0 0.00 0.00 0.00 99 1013.1
20260509114555 50 161 0.0 0.0 0.00 0.00 0.00 99 1013.2
20260509114054 49 161 0.0 0.0 0.00 0.00 0.00 99 1012.8
20260509113552 49 160 0.0 0.0 0.00 0.00 0.00 99 1012.8
20260509113049 49 160 0.0 0.0 0.00 0.00 0.00 99 1012.9
20260509112546 49 160 0.0 0.0 0.00 0.00 0.00 99 1012.8
20260509112043 49 160 0.0 0.0 0.00 0.00 0.00 99 1012.9
20260509111540 49 160 0.0 0.0 0.00 0.00 0.00 99 1012.9
20260509111037 49 160 0.0 0.0 0.00 0.00 0.00 99 1012.9
20260509110534 49 160 0.0 0.0 0.00 0.00 0.00 99 1012.9
20260509110031 49 160 0.0 0.0 0.00 0.00 0.00 99 1012.7
20260509105529 49 160 0.0 0.0 0.00 0.00 0.00 99 1012.6
20260509105026 49 160 0.0 0.0 0.00 0.00 0.00 99 1012.6
20260509104523 49 160 0.0 0.0 0.00 0.00 0.00 99 1012.9
20260509104020 49 160 0.0 0.0 0.00 0.00 0.00 99 1012.8
20260509103518 49 160 0.0 0.0 0.00 0.00 0.00 99 1012.9
20260509103016 49 160 0.0 0.0 0.00 0.00 0.00 99 1012.8
20260509102513 49 160 0.0 0.0 0.00 0.00 0.00 99 1012.7
20260509102009 50 160 0.0 0.0 0.00 0.00 0.00 99 1012.7
20260509101506 50 160 0.0 0.0 0.00 0.00 0.00 99 1012.7
20260509101003 50 160 0.0 0.0 0.00 0.00 0.00 99 1012.8
20260509100500 50 160 0.0 0.0 0.00 0.00 0.00 99 1012.7
20260509095957 51 160 0.0 0.0 0.00 0.00 0.00 99 1012.7
20260509095453 52 160 0.0 0.0 0.00 0.00 0.00 99 1012.8
20260509094951 52 160 0.0 0.0 0.00 0.00 0.00 99 1012.9
20260509094447 51 160 0.0 0.0 0.00 0.00 0.00 99 1013.0
20260509093945 51 160 0.0 0.0 0.00 0.00 0.00 99 1012.8
20260509093442 52 160 0.0 0.0 0.00 0.00 0.00 99 1013.1
20260509092940 53 160 0.0 0.0 0.00 0.00 0.00 99 1013.0
20260509092438 52 160 0.0 0.0 0.00 0.00 0.00 99 1013.0
20260509091936 50 160 0.0 0.0 0.00 0.00 0.00 99 1013.1
20260509091433 50 160 0.0 0.0 0.00 0.00 0.00 99 1012.9
20260509090930 50 160 0.0 0.0 0.00 0.00 0.00 99 1012.8
20260509090427 50 160 0.0 0.0 0.00 0.00 0.00 99 1013.0
20260509085925 50 160 0.0 0.0 0.00 0.00 0.00 99 1012.9
20260509085421 49 160 0.0 0.0 0.00 0.00 0.00 99 1012.8
20260509084917 50 160 0.0 0.0 0.00 0.00 0.00 99 1012.8
20260509084415 50 160 0.0 0.0 0.00 0.00 0.00 99 1012.7
20260509083912 51 160 0.0 0.0 0.00 0.00 0.00 99 1012.5
20260509083409 52 160 0.0 0.0 0.00 0.00 0.00 99 1012.7
20260509082906 52 160 0.0 0.0 0.00 0.00 0.00 99 1012.8
20260509082403 52 160 0.0 0.0 0.00 0.00 0.00 99 1012.6
20260509081900 52 160 0.0 0.0 0.00 0.00 0.00 99 1012.8
20260509081357 50 160 0.0 0.0 0.00 0.00 0.00 99 1012.7
20260509080855 50 161 0.0 0.0 0.00 0.00 0.00 99 1012.7
20260509080352 50 161 0.0 0.0 0.00 0.00 0.00 99 1012.8
20260509075851 50 161 0.0 0.0 0.00 0.00 0.00 99 1012.7
20260509075347 50 161 0.0 0.0 0.00 0.00 0.00 99 1012.9
20260509074844 51 161 0.0 0.0 0.00 0.00 0.00 99 1012.7
20260509074342 51 161 0.0 0.0 0.00 0.00 0.00 99 1012.9
20260509073838 51 161 0.0 0.0 0.00 0.00 0.00 99 1012.9
20260509073335 51 161 0.0 0.0 0.00 0.00 0.00 99 1012.9
20260509072831 51 161 0.0 0.0 0.00 0.00 0.00 99 1012.8
20260509072328 51 161 0.0 0.0 0.00 0.00 0.00 99 1013.1
20260509071825 51 161 0.0 0.0 0.00 0.00 0.00 99 1012.9
20260509071322 51 161 0.0 0.0 0.00 0.00 0.00 99 1012.8
20260509070819 51 161 0.0 0.0 0.00 0.00 0.00 99 1013.0
20260509070315 51 161 0.0 0.0 0.00 0.00 0.00 99 1012.9
20260509065812 51 161 0.0 0.0 0.00 0.00 0.00 99 1013.0
20260509065308 51 161 0.0 0.0 0.00 0.00 0.00 99 1013.0
20260509064804 51 161 0.0 0.0 0.00 0.00 0.00 99 1012.9
20260509064302 51 161 0.0 0.0 0.00 0.00 0.00 99 1013.1
20260509063759 51 161 0.0 0.0 0.00 0.00 0.00 99 1013.1
20260509063255 52 161 0.0 0.0 0.00 0.00 0.00 99 1013.0
20260509062753 52 161 0.0 0.0 0.00 0.00 0.00 99 1013.2
20260509062249 53 161 0.0 0.0 0.00 0.00 0.00 99 1013.1
20260509061747 52 161 0.0 0.0 0.00 0.00 0.00 99 1013.0
20260509061245 51 161 0.0 0.0 0.00 0.00 0.00 99 1013.0
20260509060741 52 161 0.0 0.0 0.00 0.00 0.00 99 1013.0
20260509060238 52 161 0.0 0.0 0.00 0.00 0.00 99 1013.5
20260509055734 53 161 0.0 0.0 0.00 0.00 0.00 99 1013.1
20260509055230 53 161 0.0 0.0 0.00 0.00 0.00 99 1013.1
20260509054726 53 161 0.0 0.0 0.00 0.00 0.00 99 1013.5
20260509054223 53 161 0.0 0.0 0.00 0.00 0.00 99 1013.1
20260509053722 53 161 0.0 0.0 0.00 0.00 0.00 99 1013.1
20260509053218 53 161 0.0 0.0 0.00 0.00 0.00 99 1013.2
20260509052716 53 161 0.0 0.0 0.00 0.00 0.00 98 1013.5
20260509052214 54 161 0.0 0.0 0.00 0.00 0.00 99 1013.3